{"data":{"norad_id":55362,"epoch":"2026-05-24T22:01:51.306816Z","epoch_age_seconds":79183,"freshness":"FRESH","line1":"1 55362U 23013AH  26144.91795494 -.00000096  00000+0  60380-5 0  9992","line2":"2 55362  43.0018 218.0212 0001463 279.7262  80.3425 15.27577437183501","mean_motion":15.27577437,"eccentricity":0.0001463,"inclination_deg":43.0018,"raan_deg":218.0212,"arg_perigee_deg":279.7262,"mean_anomaly_deg":80.3425,"bstar":6.038e-6,"rev_number":18350,"period_min":94.266906876289,"perigee_km":482.05297794578,"apogee_km":484.06056324306,"semimajor_km":6861.1937705944,"source":"CELESTRAK","updated_at":"2026-05-25T13:38:17.766069Z"}}